FW8582 Weather Reports


Display with metric or nautical units.
time (UTC)temp
F
wind
direction
speed
MPH
gust
MPH
rain 1hr
in
rain 24hr
in
rain mn
in
humidity
%
barometer
mb
20260505001544 54 148 3.0 14.0 0.00 0.00 0.00 73 1010.7
20260505000042 54 139 7.0 16.0 0.00 0.00 0.00 70 1010.5
20260504234542 55 145 4.0 13.0 0.00 0.00 0.00 68 1010.3
20260504233045 56 221 6.0 14.0 0.00 0.00 0.00 64 1010.2
20260504231544 57 186 5.0 16.0 0.00 0.00 0.00 60 1009.8
20260504230043 59 314 4.0 12.0 0.00 0.00 0.00 58 1009.8
20260504224542 59 162 5.0 14.0 0.00 0.00 0.00 56 1009.6
20260504223047 60 227 4.0 21.0 0.00 0.00 0.00 53 1009.7
20260504221545 61 160 8.0 19.0 0.00 0.00 0.00 51 1009.6
20260504220100 62 210 8.0 22.0 0.00 0.00 0.00 49 1009.6
20260504214551 63 188 8.0 19.0 0.00 0.00 0.00 48 1009.6
20260504213053 64 276 7.0 16.0 0.00 0.00 0.00 47 1009.4
20260504211538 64 249 7.0 19.0 0.00 0.00 0.00 48 1009.4
20260504210045 64 101 8.0 19.0 0.00 0.00 0.00 48 1009.3
20260504204544 65 135 8.0 22.0 0.00 0.00 0.00 47 1009.3
20260504203043 65 215 7.0 17.0 0.00 0.00 0.00 45 1009.2
20260504201537 64 202 11.0 27.0 0.00 0.00 0.00 45 1009.1
20260504200050 65 238 8.0 20.0 0.00 0.00 0.00 44 1009.2
20260504194547 66 233 9.0 16.0 0.00 0.00 0.00 41 1009.2
20260504193043 66 309 3.0 20.0 0.00 0.00 0.00 43 1009.2
20260504191553 65 224 6.0 21.0 0.00 0.00 0.00 40 1009.2
20260504190057 65 198 8.0 20.0 0.00 0.00 0.00 39 1009.3
20260504184559 65 257 9.0 22.0 0.00 0.00 0.00 37 1009.3
20260504183050 65 174 9.0 25.0 0.00 0.00 0.00 37 1009.6
20260504181547 65 253 7.0 23.0 0.00 0.00 0.00 37 1009.8
20260504180042 64 211 10.0 26.0 0.00 0.00 0.00 38 1009.9
20260504174547 64 271 9.0 28.0 0.00 0.00 0.00 36 1010.0
20260504173047 64 278 10.0 25.0 0.00 0.00 0.00 36 1010.0
20260504171544 64 270 8.0 24.0 0.00 0.00 0.00 35 1010.0
20260504081552 45 0 1.0 7.0 0.00 0.00 0.00 58 1011.2
20260504044547 42 0 0.0 3.0 0.00 0.00 0.00 59 1011.2
20260504043044 43 0 0.0 4.0 0.00 0.00 0.00 56 1011.2
20260504041540 42 0 0.0 3.0 0.00 0.00 0.00 58 1011.2
20260504040053 42 212 0.0 3.0 0.00 0.00 0.00 58 1011.0
20260504034556 42 247 0.0 4.0 0.00 0.00 0.00 60 1011.0
20260504033112 43 200 1.0 5.0 0.00 0.00 0.00 57 1010.8
20260504031638 44 0 1.0 5.0 0.00 0.00 0.00 55 1010.8
20260504030045 44 0 0.0 4.0 0.00 0.00 0.00 54 1010.7
20260504024550 44 224 1.0 4.0 0.00 0.00 0.00 54 1010.6
20260504023059 43 200 0.0 3.0 0.00 0.00 0.00 56 1010.7
20260504021543 43 191 0.0 2.0 0.00 0.00 0.00 56 1010.7
20260504020043 42 0 0.0 3.0 0.00 0.00 0.00 56 1010.7
20260504014549 43 0 0.0 2.0 0.00 0.00 0.00 56 1010.6
20260504013046 43 0 0.0 1.0 0.00 0.00 0.00 55 1010.4
20260504011536 43 0 0.0 1.0 0.00 0.00 0.00 56 1010.2
20260504010052 44 0 0.0 1.0 0.00 0.00 0.00 55 1009.9
20260504004559 44 0 0.0 2.0 0.00 0.00 0.00 54 1009.7
20260504003043 43 0 0.0 0.0 0.00 0.00 0.00 56 1009.5